TimeCST,TemperatureF,Dew PointF,Humidity,Sea Level PressureIn,VisibilityMPH,Wind Direction,Wind SpeedMPH,Gust SpeedMPH,PrecipitationIn,Events,Conditions,WindDirDegrees,DateUTC
12:52 AM,24.1,17.1,75,30.38,10.0,WNW,11.5,-,N/A,,Clear,300,2013-01-06 06:52:00
1:52 AM,25.0,17.1,72,30.39,10.0,West,12.7,-,N/A,,Clear,280,2013-01-06 07:52:00
2:52 AM,24.1,16.0,71,30.40,10.0,West,9.2,-,N/A,,Clear,280,2013-01-06 08:52:00
3:52 AM,23.0,15.1,72,30.39,10.0,WNW,10.4,-,N/A,,Clear,290,2013-01-06 09:52:00
4:52 AM,24.1,14.0,65,30.38,10.0,WNW,10.4,-,N/A,,Clear,290,2013-01-06 10:52:00
5:52 AM,18.0,10.9,74,30.40,10.0,Calm,Calm,-,N/A,,Clear,0,2013-01-06 11:52:00
6:52 AM,17.1,10.9,77,30.42,10.0,WSW,9.2,-,N/A,,Clear,250,2013-01-06 12:52:00
7:52 AM,15.1,9.0,77,30.44,10.0,West,3.5,-,N/A,,Clear,260,2013-01-06 13:52:00
8:52 AM,16.0,10.0,77,30.45,10.0,WSW,3.5,-,N/A,,Clear,250,2013-01-06 14:52:00
9:52 AM,23.0,15.1,72,30.44,10.0,SW,6.9,-,N/A,,Clear,220,2013-01-06 15:52:00
10:52 AM,32.0,19.0,59,30.43,10.0,West,9.2,-,N/A,,Clear,260,2013-01-06 16:52:00
11:52 AM,35.1,23.0,61,30.40,10.0,SW,6.9,-,N/A,,Clear,230,2013-01-06 17:52:00
12:52 PM,39.9,23.0,51,30.36,10.0,SW,11.5,-,N/A,,Clear,220,2013-01-06 18:52:00
1:52 PM,39.0,23.0,53,30.32,10.0,SSW,11.5,-,N/A,,Clear,210,2013-01-06 19:52:00
2:52 PM,39.0,25.0,57,30.30,10.0,SSW,13.8,-,N/A,,Clear,200,2013-01-06 20:52:00
3:52 PM,39.9,26.1,58,30.28,10.0,South,9.2,-,N/A,,Clear,190,2013-01-06 21:52:00
4:52 PM,37.0,27.0,67,30.27,10.0,South,11.5,-,N/A,,Clear,180,2013-01-06 22:52:00
5:52 PM,35.1,27.0,72,30.27,10.0,South,10.4,-,N/A,,Clear,170,2013-01-06 23:52:00
6:52 PM,34.0,26.1,73,30.26,10.0,South,13.8,-,N/A,,Clear,180,2013-01-07 00:52:00
7:52 PM,35.1,25.0,67,30.25,10.0,South,16.1,-,N/A,,Clear,190,2013-01-07 01:52:00
8:52 PM,33.1,23.0,66,30.25,10.0,South,13.8,-,N/A,,Clear,180,2013-01-07 02:52:00
9:52 PM,34.0,23.0,64,30.21,10.0,South,19.6,-,N/A,,Clear,180,2013-01-07 03:52:00
10:52 PM,32.0,21.9,66,30.19,10.0,South,16.1,-,N/A,,Clear,190,2013-01-07 04:52:00
11:52 PM,32.0,21.9,66,30.18,10.0,South,18.4,-,N/A,,Clear,190,2013-01-07 05:52:00